Location: Bastogne Gables
(35.1554°N, 78.9900°W)
Time: 21:18:42
(UTC+00:00)

Cosmos 2082 - Pass Details

Date: 29 October 2020
Orbit: 832 x 857 km, 71.0° (Epoch: 25 November)

Event Time Altitude Azimuth Distance (km) Brightness Sun altitude
Rises 23:19:07 0° 348° (NNW) 3,433 6.9 -11.8°
Reaches altitude 10° 23:21:50 10° 358° (N) 2,494 6.1 -12.4°
Maximum altitude 23:26:58 33° 62° (ENE) 1,402 4.4 -13.4°
Enters shadow 23:31:43 12° 123° (ESE) 2,368 5.6 -14.4°
